Terug naar catalogus

STARLINK-35523

ActiefCommunicatieVLEO
NORAD 65910·PAYLOAD·🇺🇸 United States

Gelanceerd Oct 8, 2025 vanaf Vandenberg Space Force Base

Loading…

Volgende Passages (komende 24 uur)

TLE

VersSource: CelesTrak SupGP

Epoch: Sep 15, 2026, 04:08 UTC

1 65910C 25225A   26258.17270833  .00074922  00000+0  22125-2 0  2586
2 65910  53.1592   2.5553 0001119  87.7427 179.5666 15.34368386    13

Volg STARLINK-35523 in realtime met AllMySat

Download on the App Store